[[{"header":{"parameterUnit":"m.s-1","parameterCategory":1,"la1":30.2991,"la2":30.254,"lo1":-89.0895,"lo2":-89.0444,"dy":0.0017,"dx":0.0017,"nx":28,"ny":28,"refTime":"2024-04-06T21:00:00:Z","depth":0,"parameterNumber":2,"parameterNumberName":"U-component_of_WINDS"},"data":[0,0,0,0,0,0,0,0,0,0,0,0,0,0,0,0,0,0,0,0,0,0,0,0,0,0,0,0,0,0,0,0,0,0,0,0,0,0,0,0,0,0,0,0,0,0,0,0,0,0,0,0,0,0,0,0,0,0,-3.2475,-3.2475,0,-3.2534,-3.2534,-3.2535,-3.2532,-3.2531,-3.253,-3.253,-3.259,-3.2592,-3.2594,0,0,0,0,0,0,0,0,0,0,0,0,0,-3.2359,-3.2361,-3.2474,-3.2475,-3.2476,-3.2534,-3.2535,-3.2535,-3.2532,-3.2531,-3.253,-3.2529,-3.2589,-3.2592,-3.2594,0,0,0,0,0,0,0,0,0,0,0,0,0,-3.2412,-3.2361,-3.2474,-3.2481,-3.2483,-3.2534,-3.2535,-3.2536,-3.2532,-3.2531,-3.253,-3.2529,-3.2588,-3.2591,-3.2595,-3.2642,0,0,-3.2606,-3.2607,0,0,0,0,0,0,0,0,-3.2409,-3.2417,-3.248,-3.2481,-3.2482,-3.2524,-3.2516,-3.2571,-3.2533,-3.2514,-3.253,-3.2528,-3.2569,-3.2574,-3.2588,-3.2645,-3.2648,-3.2606,-3.2608,-3.261,-3.2611,0,0,0,0,0,0,0,-3.2406,-3.2414,-3.2498,-3.2481,-3.2482,-3.2482,-3.2488,-3.2526,-3.2548,-3.2515,-3.2515,-3.2522,-3.2569,-3.2584,-3.2589,-3.2649,-3.2606,-3.2609,-3.2611,-3.2613,-3.2749,-3.275,0,0,0,0,0,0,-3.24,-3.2411,-3.2496,-3.25,-3.2442,-3.2485,-3.2492,-3.2512,-3.2547,-3.2551,-3.2523,-3.2522,-3.2579,-3.2585,-3.2591,-3.2649,-3.261,-3.2613,-3.2615,-3.2747,-3.2749,-3.2751,0,0,0,0,0,0,-3.2398,-3.2408,-3.2494,-3.2455,-3.2466,-3.2488,-3.2511,-3.2514,-3.2529,-3.2553,-3.2557,-3.2535,-3.2578,-3.2586,-3.263,-3.2651,-3.2615,-3.2618,-3.2745,-3.2748,-3.275,-3.2765,0,0,0,0,0,0,-3.2395,-3.2407,-3.2425,-3.2456,-3.2468,-3.2531,-3.2512,-3.2516,-3.2535,-3.2534,-3.2565,-3.2569,-3.2578,-3.2625,-3.2633,-3.2655,-3.2621,-3.2744,-3.2746,-3.2749,-3.2763,-3.2767,-3.2771,0,0,0,0,0,-3.2391,-3.2427,-3.2426,-3.2436,-3.2491,-3.2532,-3.2539,-3.2549,-3.2537,-3.2555,-3.2571,-3.2568,-3.2648,-3.2629,-3.2639,-3.2662,-3.2742,-3.2746,-3.2749,-3.2761,-3.2766,-3.2771,0,0,0,0,0,0,-3.2397,-3.2431,-3.243,-3.2478,-3.2502,-3.2532,-3.2555,-3.2555,-3.2583,-3.2581,-3.2592,-3.2599,-3.2642,-3.2657,-3.2636,-3.271,-3.2693,-3.2699,-3.2699,-3.2705,-3.2709,-3.2704,-3.2624,0,0,0,0,0,-3.2405,-3.2435,-3.2463,-3.2502,-3.2514,-3.2533,-3.2551,-3.2557,-3.2582,-3.2592,-3.2611,-3.2636,-3.2667,-3.2687,-3.2717,-3.2765,-3.2772,-3.2787,-3.2791,-3.2794,-3.2798,-3.2826,-3.2832,-3.2761,-3.2761,-3.2761,0,0,-3.2419,-3.2442,-3.246,-3.2504,-3.2524,-3.2555,-3.2541,-3.2575,-3.2598,-3.2597,-3.2639,-3.2655,-3.2683,-3.273,-3.2751,-3.2743,-3.282,-3.2799,-3.2801,-3.2803,-3.283,-3.2836,-3.2842,-3.2764,-3.2763,-3.2763,0,0,-3.2462,-3.2482,-3.2517,-3.2537,-3.2568,-3.258,-3.2588,-3.2618,-3.2628,-3.2671,-3.2671,-3.27,-3.2752,-3.2773,-3.279,-3.2843,-3.284,-3.2852,-3.2874,-3.2901,-3.2906,-3.2911,-3.2929,-3.2936,-3.2856,-3.2856,-3.2856,0,-3.2476,-3.2524,-3.2535,-3.2569,-3.2588,-3.259,-3.2625,-3.2645,-3.2683,-3.2696,-3.2687,-3.2754,-3.2773,-3.2825,-3.2838,-3.2852,-3.2862,-3.2847,-3.2905,-3.291,-3.2914,-3.2932,-3.2939,-3.2858,-3.2857,-3.2857,-3.2857,0,-3.254,-3.2573,-3.2597,-3.2634,-3.2657,-3.2691,-3.2708,-3.2729,-3.2734,-3.2747,-3.2791,-3.2815,-3.2849,-3.2862,-3.2867,-3.2915,-3.2909,-3.2902,-3.2885,-3.2922,-3.2939,-3.2945,-3.2859,-3.2859,-3.2858,-3.2858,0,0,-3.2586,-3.2631,-3.2639,-3.2656,-3.2691,-3.2716,-3.2752,-3.2786,-3.2804,-3.2831,-3.286,-3.2906,-3.29,-3.292,-3.2927,-3.295,-3.299,-3.2941,-3.2942,-3.2948,-3.3044,-3.3048,-3.3055,-3.299,-3.2991,-3.2992,-3.3041,0,-3.2632,-3.2694,-3.2705,-3.2759,-3.279,-3.2793,-3.2824,-3.2848,-3.2862,-3.289,-3.2906,-3.2937,-3.2928,-3.294,-3.2963,-3.298,-3.3009,-3.2977,-3.3016,-3.3018,-3.3008,-3.3064,-3.3068,-3.3113,-3.3048,-3.3049,-3.305,0,-3.2692,-3.2721,-3.2778,-3.2809,-3.2823,-3.285,-3.2883,-3.291,-3.2938,-3.2946,-3.2969,-3.2974,-3.3011,-3.2993,-3.3044,-3.3022,-3.3039,-3.305,-3.3052,-3.3055,-3.3035,-3.3067,-3.3127,-3.3134,-3.306,-3.3059,-3.3059,0,-3.272,-3.2773,-3.2814,-3.2829,-3.2866,-3.2885,-3.2902,-3.2929,-3.2949,-3.2978,-3.2991,-3.3024,-3.3042,-3.3067,-3.3081,-3.3067,-3.3131,-3.3115,-3.3138,-3.3138,-3.315,-3.3149,-3.3213,-3.3164,-3.3164,-3.3163,-3.3163,0,-3.2768,-3.2803,-3.2827,-3.2852,-3.2891,-3.2905,-3.2943,-3.2959,-3.2984,-3.3012,-3.3018,-3.3044,-3.3061,-3.309,-3.3102,-3.3142,-3.315,-3.3158,-3.316,-3.3156,-3.3155,-3.3167,-3.3163,-3.3165,-3.3165,-3.3165,-3.3164,0,-3.2805,-3.2822,-3.2867,-3.2899,-3.2908,-3.2935,-3.2963,-3.2988,-3.3002,-3.3038,-3.3048,-3.3071,-3.3105,-3.3122,-3.3165,-3.3173,-3.3218,-3.3219,-3.3208,-3.3209,-3.3231,-3.3229,-3.3304,-3.3314,-3.3259,-3.326,-3.326,0,-3.2834,-3.286,-3.2896,-3.2915,-3.2932,-3.2964,-3.2985,-3.3,-3.3022,-3.3056,-3.3077,-3.3112,-3.3141,-3.3196,-3.3217,-3.325,-3.3251,-3.3275,-3.3256,-3.3251,-3.325,-3.3248,-3.325,-3.3278,-3.3278,-3.3279,-3.3279,0,-3.2883,-3.2891,-3.2921,-3.2955,-3.2979,-3.3006,-3.3033,-3.3049,-3.3068,-3.3092,-3.3128,-3.315,-3.3195,-3.3229,-3.3264,-3.3281,-3.3283,-3.3285,-3.3292,-3.3288,-3.3281,-3.3284,-3.3216,-3.3283,-3.3283,-3.3282,-3.3282,-3.3282,-3.2916,-3.294,-3.2969,-3.3003,-3.3024,-3.3049,-3.3074,-3.3092,-3.3122,-3.316,-3.3167,-3.3205,-3.3234,-3.3281,-3.3299,-3.3329,-3.3324,-3.3334,-3.3337,-3.3339,-3.3339,-3.3277,-3.3336,-3.3336,-3.3336,-3.3336,-3.3335,0,-3.2966,-3.2985,-3.3015,-3.3053,-3.3079,-3.308,-3.3109,-3.3131,-3.3165,-3.3191,-3.322,-3.3261,-3.3295,-3.3319,-3.3354,-3.3373,-3.3375,-3.3382,-3.338,-3.3383,-3.3343,-3.3333,-3.3379,-3.3379,-3.3379,-3.3379,-3.3379,-3.3379,-3.2994,-3.3035,-3.3046,-3.3098,-3.3117,-3.3154,-3.3171,-3.3194,-3.3215,-3.3261,-3.329,-3.3305,-3.3331,-3.3368,-3.3399,-3.3405,-3.3417,-3.3424,-3.343,-3.3391,-3.3386,-3.3382,-3.3372,-3.3427,-3.3427,-3.3468,-3.3468,-3.3469]},{"header":{"parameterUnit":"m.s-1","parameterCategory":1,"la1":30.2991,"la2":30.254,"lo1":-89.0895,"lo2":-89.0444,"dy":0.0017,"dx":0.0017,"nx":28,"ny":28,"refTime":"2024-04-06T21:00:00:Z","depth":0,"parameterNumber":3,"parameterNumberName":"V-component_of_WINDS"},"data":[0,0,0,0,0,0,0,0,0,0,0,0,0,0,0,0,0,0,0,0,0,0,0,0,0,0,0,0,0,0,0,0,0,0,0,0,0,0,0,0,0,0,0,0,0,0,0,0,0,0,0,0,0,0,0,0,0,0,5.1693,5.1693,0,5.1678,5.1678,5.1677,5.1636,5.1635,5.1635,5.1634,5.1615,5.1616,5.1616,0,0,0,0,0,0,0,0,0,0,0,0,0,5.1685,5.1685,5.1693,5.1693,5.1692,5.1678,5.1678,5.1677,5.1636,5.1635,5.1634,5.1633,5.1615,5.1616,5.1616,0,0,0,0,0,0,0,0,0,0,0,0,0,5.1681,5.1685,5.1693,5.167,5.1668,5.1678,5.1677,5.1677,5.1637,5.1635,5.1634,5.1633,5.1615,5.1616,5.1616,5.1645,0,0,5.1618,5.1618,0,0,0,0,0,0,0,0,5.1681,5.1681,5.1674,5.1672,5.1669,5.1658,5.1668,5.1666,5.1637,5.1649,5.1634,5.1632,5.163,5.1629,5.1629,5.1645,5.1644,5.1618,5.1618,5.1618,5.1618,0,0,0,0,0,0,0,5.1681,5.1682,5.1687,5.1674,5.1671,5.1661,5.1659,5.1667,5.1647,5.1647,5.1644,5.1643,5.1629,5.1629,5.1629,5.1643,5.1618,5.1618,5.1618,5.1619,5.1684,5.1685,0,0,0,0,0,0,5.1685,5.1682,5.1687,5.1686,5.1672,5.1662,5.1659,5.1663,5.1647,5.1643,5.1644,5.1641,5.1629,5.1628,5.1628,5.1662,5.1618,5.1619,5.1619,5.1682,5.1684,5.1686,0,0,0,0,0,0,5.1685,5.1686,5.1688,5.1683,5.1683,5.1663,5.1667,5.1663,5.1663,5.1644,5.164,5.1649,5.1628,5.1627,5.1642,5.1661,5.1619,5.1619,5.1681,5.1683,5.1685,5.1731,0,0,0,0,0,0,5.1685,5.1686,5.1697,5.1684,5.1683,5.1703,5.1668,5.1664,5.1665,5.166,5.1647,5.1644,5.1627,5.1641,5.1642,5.1661,5.162,5.1679,5.1682,5.1684,5.1727,5.1734,5.174,0,0,0,0,0,5.1685,5.171,5.1698,5.1699,5.1697,5.1704,5.1703,5.1684,5.1666,5.1677,5.1666,5.1644,5.1659,5.1643,5.1644,5.1663,5.1678,5.1681,5.1684,5.1725,5.1733,5.174,0,0,0,0,0,0,5.1724,5.1707,5.1694,5.1716,5.1712,5.1697,5.171,5.1693,5.1693,5.1689,5.1664,5.1662,5.168,5.1673,5.1656,5.1691,5.1665,5.1668,5.1695,5.1703,5.1709,5.1711,5.162,0,0,0,0,0,5.1736,5.1743,5.1728,5.1748,5.1747,5.1729,5.1731,5.1717,5.1712,5.1709,5.1698,5.1693,5.1697,5.17,5.1702,5.1726,5.1723,5.174,5.1746,5.1752,5.1755,5.1769,5.1776,5.1696,5.1696,5.1696,0,0,5.1758,5.175,5.1756,5.1756,5.1751,5.176,5.1728,5.1737,5.1744,5.171,5.1724,5.1717,5.1709,5.173,5.1738,5.1724,5.1776,5.1756,5.176,5.176,5.1773,5.178,5.1787,5.1699,5.1698,5.1698,0,0,5.1805,5.1799,5.1817,5.1813,5.1807,5.1795,5.18,5.1788,5.1782,5.1796,5.1772,5.1778,5.1785,5.1781,5.178,5.1828,5.1809,5.1829,5.1862,5.1876,5.1882,5.1888,5.1906,5.1912,5.1833,5.1833,5.1833,0,5.1834,5.1846,5.1827,5.1839,5.184,5.1813,5.183,5.1827,5.1822,5.1823,5.1808,5.1817,5.181,5.183,5.1842,5.1841,5.1846,5.183,5.1883,5.1888,5.1893,5.191,5.1917,5.1835,5.1835,5.1835,5.1835,0,5.1883,5.1892,5.1907,5.1904,5.1907,5.1921,5.1904,5.1909,5.1895,5.1885,5.1901,5.1892,5.1892,5.1896,5.1882,5.1914,5.1906,5.1888,5.186,5.1904,5.1919,5.1925,5.1839,5.1838,5.1837,5.1837,0,0,5.1952,5.194,5.1946,5.1945,5.1938,5.1944,5.1958,5.196,5.1965,5.1963,5.1974,5.1982,5.1965,5.1964,5.1949,5.1962,5.2002,5.1942,5.1941,5.1954,5.2039,5.2053,5.2061,5.1989,5.1991,5.1991,5.204,0,5.1996,5.202,5.2004,5.2031,5.204,5.2015,5.2027,5.2024,5.2015,5.2021,5.2011,5.2017,5.1994,5.1994,5.2005,5.1995,5.2019,5.1991,5.2,5.2,5.2002,5.2069,5.2083,5.2129,5.2045,5.2046,5.2047,0,5.2051,5.2053,5.2081,5.2074,5.2077,5.2088,5.209,5.2096,5.2092,5.2085,5.2086,5.2068,5.2082,5.2056,5.2074,5.2055,5.2058,5.2054,5.2055,5.2055,5.2026,5.2071,5.2143,5.215,5.2056,5.2055,5.2055,0,5.21,5.2109,5.2128,5.2128,5.2119,5.2128,5.2125,5.212,5.2123,5.2124,5.2126,5.2129,5.213,5.2132,5.2117,5.2099,5.2137,5.2109,5.2132,5.2132,5.2141,5.214,5.2215,5.2142,5.2142,5.2142,5.2142,0,5.2151,5.2169,5.215,5.2161,5.2181,5.2163,5.2183,5.2177,5.2173,5.2183,5.2161,5.2171,5.2149,5.2156,5.2144,5.2162,5.2162,5.2157,5.2153,5.2159,5.216,5.216,5.2157,5.2144,5.2143,5.2143,5.2143,0,5.2208,5.2196,5.2215,5.2206,5.2205,5.222,5.2212,5.2222,5.2213,5.2226,5.2228,5.2214,5.2221,5.2206,5.2211,5.2203,5.2228,5.2219,5.223,5.2227,5.2251,5.2249,5.2329,5.2338,5.2259,5.226,5.2261,0,5.2242,5.2256,5.225,5.2255,5.2254,5.2263,5.2267,5.225,5.2254,5.2252,5.2263,5.2269,5.2273,5.2287,5.2276,5.2281,5.2272,5.23,5.2272,5.2278,5.2273,5.2273,5.2275,5.2305,5.2306,5.2307,5.2308,0,5.2304,5.2298,5.2304,5.231,5.2315,5.2318,5.2319,5.2325,5.2307,5.2313,5.2322,5.2325,5.2332,5.2339,5.2341,5.2337,5.232,5.2317,5.2322,5.2328,5.2334,5.2332,5.2246,5.2315,5.2314,5.2313,5.2313,5.2313,5.2351,5.2362,5.2361,5.2369,5.2369,5.2371,5.2381,5.2374,5.2381,5.2386,5.2376,5.2387,5.2384,5.2386,5.2384,5.2393,5.238,5.2388,5.239,5.2393,5.2397,5.2333,5.2393,5.2393,5.2393,5.2392,5.2392,0,5.2412,5.241,5.2418,5.2422,5.2429,5.2414,5.2415,5.2422,5.2432,5.2432,5.2437,5.2448,5.2455,5.2446,5.2451,5.246,5.2452,5.2462,5.2461,5.2461,5.2407,5.2402,5.2468,5.2468,5.2468,5.2468,5.2468,5.2468,5.2445,5.2464,5.2459,5.2478,5.2476,5.2488,5.249,5.2492,5.2492,5.2506,5.2512,5.2507,5.2503,5.2508,5.2514,5.2511,5.2515,5.2527,5.2522,5.2472,5.2464,5.2457,5.2453,5.2528,5.2528,5.2575,5.2575,5.2576]}]]